Weather History for Concordia, KS

Change the Weather History Date:

Sunday, May 26, 2013

  Actual Average Record
Temperature  
Mean Temperature 76 °F 66 °F  
Max Temperature 85 °F 77 °F 98 °F (2012)
Min Temperature 67 °F 55 °F 40 °F (1940)
Degree Days  
Heating Degree Days 0 2  
Month to date heating degree days 152 121  
Since 1 July heating degree days 5499 5385  
Cooling Degree Days 11 4  
Month to date cooling degree days 61 50  
Year to date cooling degree days 71 67  
Growing Degree Days 25 (Base 50)    
Moisture  
Dew Point 65 °F    
Average Humidity 71    
Maximum Humidity 87    
Minimum Humidity 55    
Precipitation  
Precipitation 0.00 in 0.14 in 2.66 in (1996)
Month to date precipitation 4.15 3.44  
Year to date precipitation 10.00 9.27  
Snow  
Snow 0.00 in 0.00 in T in (1955)
Month to date snowfall T 0.0  
Year to date snowfall 20.3 13.7  
Since 1 July snowfall 28.8 20.2  
Snow Depth 0.00 in    
Sea Level Pressure  
Sea Level Pressure 29.86 in    
Wind  
Wind Speed 18 mph (SSE)    
Max Wind Speed 28 mph    
Max Gust Speed 37 mph    
Visibility 10 miles    
Events      
T = Trace of Precipitation, MM = Missing Value Source: NWS Daily Summary

Daily Weather History Graph

Daily Weather History Graph

Search for Another Location

Airport:

Trip Planner

Search our weather history database for the weather conditions in past years. The results will help you decide how hot, cold, wet, or windy it might be!

Date:

Astronomy

May. 26, 2013 Rise Set
Actual Time 6:08 AM CDT 8:47 PM CDT
Civil Twilight 5:36 AM CDT 9:19 PM CDT
Nautical Twilight 4:57 AM CDT 9:58 PM CDT
Astronomical Twilight 4:13 AM CDT 10:42 PM CDT
Moon 10:36 PM CDT (5/26) 7:38 AM CDT (5/26)
Length of Visible Light 15h 42m
Length of Day
14h 39m
Waning Gibbous, 96% of the Moon is Illuminated
May 26
Waning Gibbous
May 31
Last Quarter
Jun 8
New
Jun 16
First Quarter
Jun 23
Full

Hourly Weather History & Observations

Time (CDT) Temp. Heat Index Dew Point Humidity Pressure Visibility Wind Dir Wind Speed Gust Speed Precip Events Conditions
12:55 AM 70.0 °F - 64.0 °F 81% 29.96 in 10.0 mi South 13.8 mph - N/A   Clear
1:55 AM 69.1 °F - 64.9 °F 87% 29.92 in 10.0 mi South 16.1 mph - N/A   Clear
2:55 AM 69.1 °F - 64.0 °F 84% 29.88 in 10.0 mi South 24.2 mph 31.1 mph N/A   Clear
3:55 AM 68.0 °F - 64.0 °F 87% 29.83 in 10.0 mi South 23.0 mph 34.5 mph N/A   Clear
4:55 AM 68.0 °F - 63.0 °F 84% 29.86 in 10.0 mi South 21.9 mph 32.2 mph N/A   Scattered Clouds
5:06 AM 68.0 °F - 62.6 °F 83% 29.89 in 10.0 mi South 19.6 mph 28.8 mph N/A   Mostly Cloudy
5:55 AM 68.0 °F - 63.0 °F 84% 29.88 in 10.0 mi South 11.5 mph - N/A   Overcast
6:34 AM 66.2 °F - 62.6 °F 88% 29.91 in 10.0 mi South 16.1 mph - N/A   Overcast
6:55 AM 66.9 °F - 63.0 °F 87% 29.86 in 10.0 mi South 19.6 mph 27.6 mph N/A   Mostly Cloudy
7:30 AM 68.0 °F - 64.4 °F 88% 29.88 in 10.0 mi South 18.4 mph 27.6 mph N/A   Scattered Clouds
7:43 AM 68.0 °F - 64.4 °F 88% 29.89 in 10.0 mi South 18.4 mph 26.5 mph N/A   Mostly Cloudy
7:52 AM 68.0 °F - 64.4 °F 88% 29.88 in 10.0 mi SSE 20.7 mph 27.6 mph N/A   Mostly Cloudy
7:55 AM 68.0 °F - 64.0 °F 87% 29.84 in 10.0 mi South 20.7 mph 27.6 mph N/A   Overcast
8:55 AM 69.1 °F - 64.0 °F 84% 29.88 in 10.0 mi South 10.4 mph 19.6 mph N/A   Overcast
9:55 AM 69.1 °F - 64.0 °F 84% 29.89 in 10.0 mi South 18.4 mph 23.0 mph N/A   Overcast
10:55 AM 72.0 °F - 64.9 °F 78% 29.89 in 10.0 mi South 16.1 mph 21.9 mph N/A   Overcast
11:12 AM 73.4 °F - 64.4 °F 73% 29.92 in 10.0 mi SSE 21.9 mph 25.3 mph N/A   Overcast
11:45 AM 73.4 °F - 64.4 °F 73% 29.92 in 10.0 mi South 21.9 mph 28.8 mph N/A   Overcast
11:52 AM 73.4 °F - 64.4 °F 73% 29.92 in 10.0 mi South 19.6 mph 28.8 mph N/A   Overcast
11:55 AM 73.0 °F - 64.9 °F 76% 29.88 in 10.0 mi South 20.7 mph 27.6 mph N/A   Overcast
12:55 PM 77.0 °F - 66.0 °F 69% 29.87 in 10.0 mi SSE 18.4 mph - N/A   Overcast
1:55 PM 79.0 °F - 66.9 °F 66% 29.85 in 10.0 mi SSE 18.4 mph 28.8 mph N/A   Mostly Cloudy
2:06 PM 82.4 °F 84.6 °F 66.2 °F 58% 29.88 in 10.0 mi South 17.3 mph 26.5 mph N/A   Scattered Clouds
2:18 PM 80.6 °F 82.7 °F 66.2 °F 61% 29.88 in 10.0 mi SSE 19.6 mph 28.8 mph N/A   Mostly Cloudy
2:55 PM 81.0 °F 83.3 °F 66.9 °F 62% 29.83 in 10.0 mi SSE 20.7 mph 29.9 mph N/A   Mostly Cloudy
3:55 PM 84.0 °F 86.5 °F 66.9 °F 56% 29.81 in 10.0 mi SSE 18.4 mph 31.1 mph N/A   Partly Cloudy
4:55 PM 84.0 °F 87.0 °F 68.0 °F 58% 29.78 in 10.0 mi South 17.3 mph 34.5 mph N/A   Partly Cloudy
5:55 PM 82.9 °F 85.4 °F 66.9 °F 58% 29.78 in 10.0 mi SSE 24.2 mph 31.1 mph N/A   Clear
6:55 PM 81.0 °F 83.8 °F 68.0 °F 65% 29.78 in 10.0 mi South 17.3 mph 33.4 mph N/A   Partly Cloudy
7:55 PM 79.0 °F - 66.9 °F 66% 29.78 in 10.0 mi SSE 16.1 mph 24.2 mph N/A   Clear
8:55 PM 75.9 °F - 66.0 °F 71% 29.77 in 10.0 mi SE 15.0 mph - N/A   Clear
9:55 PM 73.9 °F - 66.9 °F 79% 29.77 in 10.0 mi SSE 18.4 mph 24.2 mph N/A   Clear
10:55 PM 73.9 °F - 66.0 °F 76% 29.75 in 10.0 mi SSE 17.3 mph 25.3 mph N/A   Clear
11:55 PM 73.0 °F - 66.9 °F 81% 29.75 in 10.0 mi South 19.6 mph 26.5 mph N/A   Clear